Regional Weather Roundup
Issued by NWS Charleston, WV

Home | Current Version | Previous Version | Graphics & Text | Print | Product List | Glossary On
Versions: 1 2 3 4 5 6 7 8 9 10 11 12 13 14 15 16 17 18 19 20 21 22 23 24 25 26 27 28 29 30 31 32 33 34 35 36 37 38 39 40 41 42 43 44 45 46 47 48 49 50
000
ASUS41 KRLX 291810
RWRRLX
West Virginia Regional Weather Roundup
National Weather Service Charleston WV
200 PM EDT SUN MAR 29 2015

Note: "fair" indicates few or no clouds below 12,000 feet with no
significant weather and/or obstructions to visibility.

WVZ003-291900-
Northern Panhandle of West Virginia

CITY           SKY/WX    TMP DP  RH WIND       PRES   REMARKS
WHEELING       SUNNY     40  11  30 SW13      30.26F
$$

WVZ009-291900-
Northwest West Virginia

CITY           SKY/WX    TMP DP  RH WIND       PRES   REMARKS
PARKERSBURG    SUNNY     42   9  25 SW7       30.33F
$$

WVZ006-291900-
Western West Virginia

CITY           SKY/WX    TMP DP  RH WIND       PRES   REMARKS
HUNTINGTON     LGT RAIN  46   6  19 SW9       30.30F
$$

WVZ015-291900-
West Central West Virginia

CITY           SKY/WX    TMP DP  RH WIND       PRES   REMARKS
CHARLESTON     MOSUNNY   44   6  21 VRB3      30.30F
$$

WVZ022-031-291900-
North Central West Virginia

CITY           SKY/WX    TMP DP  RH WIND       PRES   REMARKS
CLARKSBURG     SUNNY     39  11  31 SW7       30.29F
MORGANTOWN     SUNNY     40  10  29 SW9       30.29F
$$

WVZ025-035-042-045-291900-
Southern West Virginia

CITY           SKY/WX    TMP DP  RH WIND       PRES   REMARKS
BECKLEY        SUNNY     43  -4  14 VRB3      30.24F
LOGAN            N/A     45   7  21 VRB6      30.23F
BLUEFIELD      SUNNY     47  -1  13 MISG      30.24F
LEWISBURG      SUNNY     42  -4  14 W6        30.26F
$$

WVZ047-291900-
Northern Mountains of West Virginia

CITY           SKY/WX    TMP DP  RH WIND       PRES   REMARKS
ELKINS         SUNNY     37   5  26 CALM      30.26F
$$

WVZ052-291900-
Eastern Panhandle of West Virginia

CITY           SKY/WX    TMP DP  RH WIND       PRES   REMARKS
MARTINSBURG    SUNNY     43   6  21 VRB5      30.31F
PETERSBURG     SUNNY     43   2  17 NE6       30.29F
$$


USA.gov is the U.S. government's official web portal to all federal, state and local government web resources and services.